Weather in Pervomayskiy

Russia / Moscow Oblast     55°56′35″N   37°53′31″E
temp.,
°C
wind,
m/s
gust,
m/s
humid.,
%
clouds,
%
prec.,
mm/h
press.,
hPa
HPBL,
m
1 march, mon
mon100:00−8nne229330 0.0 102121
03:00−9nnw119425 0.0 102321
06:00−9w129473 0.0 102321
09:00−6wsw249582 0.1 1024164
12:00−2wsw369287 0.0 1023409
15:000wsw599192 0.1 1021596
18:000wsw41192100 0.0 1019528
21:00+1w51393100 0.0 1017681
2 march, tue
tue200:00+1w51292100 0.0 1014662
03:00+1wnw51291100 0.0 1012901
06:00+1w51294100 0.0 1009725
09:00+1nw41191100 0.2 1009834
12:00+2nw598597 0.1 10081005
15:00+1nw5108694 0.3 10081010
18:000nw4108475 0.1 1008817
21:00−2nnw5129184 0.2 1010873
3 march, wed
wed300:00−3nw5119497 0.1 1011721
03:00−4nnw5128796 0.2 1013827
06:00−5nnw6128961 0.1 1014896
09:00−5nnw5127965 0.1 1017931
12:00−1nw598029 0.0 1016817
15:00−1wnw598453 0.1 1015914
18:00−1wnw51085100 0.1 1014785
21:00−1w41089100 0.1 1014766
4 march, thu
thu400:00−2w41091100 0.1 1011793
03:00−1wsw61389100 0.1 1007771
06:00−1wsw6158799 0.1 1003800
09:00−1w71486100 0.1 10001057
12:00+1w7128699 0.1 9991070
15:00+1wsw61294100 0.2 999868
18:00−2wnw31078100 1.9 999940
21:00−4nw31088100 1.9 1002482
5 march, fri
fri500:00−6nw39930 0.0 1004287
03:00−7nw37955 0.0 1006265
06:00−9nw249732 0.0 1008111
09:00−8nw239126 0.0 1009191
12:00−4wnw22720 0.0 1010655
15:00−3wnw126510 0.0 1011888
18:00−6wnw118467 0.0 101121
21:00−8s008976 0.0 101221